Wind_Speed
27 26 26 27 26 27 27 27 27 26 26 24 23 24 24 23 22 22 21 20 19 20 20 20 21 21 21 21 20 21 22 22 23 23 23 22 23 23 23 23 24 24 25 26
28 28 27 27 26 26 27 28 28 27 27 25 25 25 24 24 23 22 21 20 20 21 21 21 22 23 22 22 22 23 23 24 24 24 24 23 24 24 25 25 26 26 26 26
30 29 29 28 26 26 27 28 28 28 26 27 26 25 25 25 24 22 21 21 21 22 22 23 23 23 23 24 24 24 23 23 24 25 25 25 25 26 26 27 28 28 28 28
30 30 31 29 27 26 26 27 28 27 26 26 25 25 24 24 23 23 23 23 22 22 23 23 24 24 24 24 25 24 24 24 25 25 25 26 27 27 28 28 29 29 29 29
29 30 30 29 27 27 26 26 26 26 26 25 25 25 24 23 23 23 24 23 23 23 23 24 24 24 25 25 25 25 25 25 26 26 27 28 28 29 29 30 30 30 31 31
29 29 29 27 27 27 26 26 26 25 25 26 26 26 24 24 24 24 24 24 24 25 25 25 25 25 25 26 26 26 26 27 28 29 29 29 29 29 29 29 30 30 30 30
28 28 28 27 26 26 26 26 26 26 26 26 27 27 26 26 25 25 25 25 25 24 25 26 25 25 25 27 27 28 28 29 29 29 29 29 29 29 29 30 30 30 30 30
28 28 27 26 25 26 26 25 25 25 25 25 25 26 26 25 25 24 24 25 25 25 25 26 25 25 26 27 27 28 28 28 28 28 28 28 29 30 30 30 30 29 29 30
27 26 25 25 25 26 26 26 26 26 25 25 26 26 26 26 25 25 25 26 25 25 25 25 26 26 27 27 26 27 27 27 27 28 28 28 29 29 29 29 29 30 30 30
27 27 26 26 26 27 26 27 26 26 26 25 25 26 26 25 25 25 26 26 25 25 25 26 27 27 27 27 27 28 28 28 28 28 28 28 28 28 28 29 29 29 29 29
28 28 27 27 27 27 27 27 27 27 27 26 26 26 26 25 24 25 25 25 25 26 26 26 26 27 28 28 29 29 28 27 27 28 28 28 28 28 28 29 29 29 29 29
29 29 29 27 27 26 26 26 26 26 26 26 26 26 25 25 25 25 25 25 25 26 27 27 27 28 29 29 29 28 28 29 29 28 28 28 28 27 28 29 29 29 29 30
30 29 29 29 27 26 26 26 27 27 27 26 25 25 25 26 26 26 26 26 26 27 28 28 28 28 29 29 29 29 30 30 29 28 28 28 28 28 28 28 28 29 29 29
30 30 30 29 29 28 27 28 28 28 27 26 26 26 26 27 27 27 27 27 28 29 29 30 29 29 29 29 29 29 30 30 30 30 29 29 29 29 28 28 28 28 28 29
30 30 30 30 29 28 28 28 29 28 28 28 28 28 28 28 28 28 29 29 30 30 30 30 30 29 29 29 29 29 29 29 30 30 30 30 29 29 29 29 29 28 29 29
28 29 29 29 29 29 28 28 29 29 28 27 27 28 28 29 29 29 29 29 29 30 30 30 31 30 30 30 29 29 29 29 29 29 29 29 29 29 29 29 29 29 29 29
27 28 28 28 28 29 29 29 30 30 29 28 28 28 29 29 29 30 30 30 30 30 30 30 30 30 30 29 29 29 29 29 29 29 29 29 29 28 29 29 29 29 28 29
27 27 28 28 29 28 28 28 28 29 30 31 31 30 30 30 30 30 30 30 31 31 30 29 29 29 29 28 28 28 28 29 29 29 29 28 29 28 29 29 29 29 29 30
26 26 27 27 28 28 28 28 29 30 30 31 30 30 30 30 30 30 31 31 31 30 29 29 29 29 29 30 30 30 29 29 29 29 29 29 29 30 30 29 29 29 29 29
24 25 25 26 26 27 27 27 28 28 28 29 29 30 29 30 30 30 30 30 30 29 29 29 29 30 31 31 31 30 30 29 29 28 29 29 30 30 29 29 29 28 29 29
22 23 24 24 25 25 26 26 27 28 29 29 29 28 28 29 30 30 30 30 30 30 29 30 30 30 29 29 29 29 29 29 29 28 28 29 30 29 29 28 28 28 28 28
20 21 22 22 23 24 25 25 26 26 26 27 27 28 28 28 28 29 29 29 29 29 28 28 28 28 28 27 28 28 28 28 28 28 28 28 28 28 28 28 28 28 27 27
20 21 21 21 21 22 23 23 23 23 23 24 25 26 27 27 27 28 27 26 26 26 26 26 27 27 27 27 27 27 27 27 27 27 28 28 28 27 27 27 27 26 26 26
19 20 21 20 20 20 20 21 21 21 21 22 23 24 25 26 26 26 26 25 25 25 25 26 26 26 27 27 27 26 26 25 26 26 27 27 27 26 26 26 26 25 25 25
18 18 17 18 18 19 19 19 19 20 20 20 21 22 23 23 23 24 24 24 24 24 25 25 26 26 26 26 25 25 25 25 25 25 25 25 25 25 24 24 24 24 24 24
16 16 16 16 16 17 17 18 18 19 19 19 20 20 20 20 20 21 21 22 22 22 23 23 24 25 24 23 22 23 24 24 25 24 24 24 24 23 23 23 23 23 23 22
15 15 15 16 16 16 16 17 17 18 18 19 19 19 19 18 18 19 19 20 20 20 21 22 22 21 21 20 20 21 22 23 23 22 22 22 22 22 21 21 21 21 21 21
Wind_Direction
257 257 257 257 259 262 263 263 264 265 267 270 272 274 277 278 277 278 281 283 284 287 290 289 288 287 290 289 290 291 293 295 295 294 294 295 296 294 295 296 296 296 298 298
257 258 258 258 258 261 262 261 263 267 268 268 270 274 276 277 279 277 280 281 282 286 288 290 290 288 289 288 290 292 293 295 296 295 294 297 298 297 296 297 298 299 300 298
255 256 258 257 258 261 261 262 265 267 268 268 271 275 276 278 278 277 280 281 282 285 288 292 292 290 290 288 289 292 295 296 296 295 295 295 296 297 296 295 296 298 298 297
259 258 258 260 260 261 262 263 265 266 266 267 272 274 276 278 281 280 280 281 282 285 289 289 289 288 288 286 287 289 291 292 294 295 296 294 294 294 294 294 295 296 296 296
260 260 261 261 262 261 262 263 264 264 265 267 271 274 276 278 278 278 280 281 283 284 288 288 285 286 288 289 288 288 289 291 292 294 295 294 293 293 294 294 294 295 295 296
260 261 261 262 263 262 262 263 265 267 267 267 269 271 275 278 277 276 278 280 283 284 285 285 285 286 289 291 290 290 289 290 292 293 293 293 293 293 294 294 294 294 295 297
258 260 260 260 261 261 261 263 265 266 267 268 269 272 275 277 278 278 277 278 282 285 286 286 287 288 290 292 291 292 291 292 293 294 293 293 294 294 294 295 295 295 296 298
256 258 260 261 260 260 261 261 263 265 268 269 269 271 272 274 275 277 279 281 283 285 286 288 292 293 293 295 294 293 292 293 293 294 293 294 296 295 294 295 295 296 297 297
254 257 258 259 259 260 261 261 263 266 267 267 267 269 271 272 274 277 280 281 282 285 288 289 291 292 294 296 295 295 294 295 295 294 295 296 296 297 296 297 296 297 297 298
255 255 256 257 259 261 262 264 264 265 266 266 267 268 269 270 273 275 276 278 280 282 286 289 291 291 292 294 294 295 296 295 295 296 298 297 298 299 299 298 298 299 299 299
253 254 255 257 258 259 260 263 264 264 265 266 267 267 268 270 273 275 277 278 281 283 284 286 288 289 290 292 294 294 296 298 299 300 300 299 298 298 298 300 299 299 298 298
253 253 255 256 257 259 262 264 264 265 266 267 268 268 268 269 273 275 276 278 280 282 284 286 286 288 290 291 293 293 294 296 298 298 298 297 297 297 298 300 299 298 299 300
253 253 255 256 258 259 261 263 264 266 267 269 269 269 270 270 271 273 276 278 282 284 285 287 288 289 290 292 293 294 295 295 296 297 297 297 297 298 298 300 300 300 300 302
252 254 255 255 257 258 261 263 264 262 263 265 267 268 270 270 271 274 277 278 281 283 285 286 289 291 293 293 293 295 295 295 296 296 295 296 296 297 298 299 301 300 301 302
253 254 255 254 254 257 260 263 264 264 265 264 264 267 269 270 271 274 277 280 282 284 285 287 288 290 293 293 293 294 295 296 297 297 295 294 294 297 298 300 300 300 300 302
255 255 255 254 253 256 260 262 263 264 266 265 265 268 269 269 271 275 279 281 282 283 286 288 289 289 292 293 294 295 296 296 296 297 297 296 295 295 297 298 298 299 300 300
255 256 256 256 257 259 261 263 263 265 267 268 270 273 274 274 275 277 278 280 282 282 284 286 288 289 290 291 292 293 295 296 296 296 298 297 298 297 298 298 298 298 300 300
256 258 259 260 261 263 264 264 266 266 267 268 270 271 273 275 276 277 279 280 281 283 286 287 287 287 288 289 290 291 292 294 295 296 296 297 298 298 299 299 299 300 300 301
256 259 261 262 262 263 265 267 267 268 269 269 270 271 273 275 276 277 278 279 280 282 284 286 287 287 287 288 291 292 292 294 295 295 294 295 296 297 298 298 298 299 300 302
258 259 261 262 264 265 266 268 269 269 270 270 271 272 273 275 276 277 278 278 279 281 283 285 287 287 288 289 291 292 294 294 294 294 294 294 294 295 296 296 297 298 300 301
261 262 262 263 264 266 269 271 272 272 271 271 271 273 274 275 276 278 280 280 280 281 283 286 288 289 288 290 291 292 292 293 294 294 293 293 295 295 295 296 297 297 299 299
264 264 264 267 270 271 272 273 274 274 272 270 273 275 276 277 278 280 282 281 280 281 283 285 287 288 288 289 290 291 292 292 294 294 293 294 295 295 295 296 297 298 299 299
265 267 269 272 275 277 276 276 277 277 275 274 277 278 278 277 278 281 281 281 280 282 284 286 288 289 290 290 290 292 294 295 296 297 296 295 295 296 297 297 298 298 299 299
269 272 273 274 274 277 278 278 279 279 277 277 279 280 280 280 281 281 280 278 279 282 283 286 289 291 291 291 291 293 295 296 297 298 298 298 298 298 296 296 296 298 299 300
272 274 274 275 279 281 281 280 280 279 278 279 281 283 283 283 282 282 282 282 283 284 285 287 290 291 293 292 292 294 296 297 298 300 300 299 299 299 298 298 298 299 299 300
273 275 277 278 281 283 281 281 281 280 280 282 284 285 286 286 285 285 285 284 285 287 288 290 292 294 294 293 294 296 297 299 300 301 300 299 299 300 300 300 302 303 302 302
275 276 276 278 280 281 282 283 283 282 282 283 286 287 289 290 290 289 289 290 289 289 290 293 294 295 296 296 297 299 302 303 303 304 304 303 303 303 302 302 304 304 304 304
Height
5842 5843 5844 5846 5848 5849 5850 5850 5851 5853 5854 5855 5855 5856 5856 5856 5855 5855 5855 5854 5854 5853 5852 5851 5850 5848 5847 5845 5843 5842 5840 5838 5836 5834 5833 5831 5829 5827 5825 5822 5820 5818 5816 5813
5835 5836 5837 5839 5841 5842 5843 5844 5845 5846 5848 5848 5849 5849 5850 5850 5849 5849 5849 5849 5848 5847 5846 5845 5844 5842 5841 5839 5838 5836 5834 5832 5830 5828 5826 5824 5822 5820 5818 5816 5814 5811 5809 5806
5829 5830 5830 5832 5835 5836 5837 5838 5839 5839 5842 5841 5842 5843 5843 5844 5843 5843 5843 5843 5842 5841 5840 5839 5837 5836 5835 5833 5831 5829 5827 5825 5823 5821 5819 5818 5816 5814 5812 5809 5807 5805 5802 5799
5821 5823 5824 5828 5828 5829 5830 5831 5832 5833 5834 5835 5836 5836 5837 5837 5837 5837 5837 5836 5835 5834 5834 5832 5831 5829 5828 5826 5825 5823 5821 5819 5817 5815 5813 5811 5809 5807 5804 5802 5799 5797 5794 5791
5814 5815 5816 5820 5822 5823 5824 5824 5826 5826 5828 5829 5830 5830 5830 5831 5831 5830 5830 5829 5828 5828 5826 5825 5824 5822 5821 5819 5817 5816 5814 5812 5810 5808 5806 5804 5802 5799 5796 5794 5791 5789 5786 5783
5807 5808 5810 5814 5815 5815 5818 5818 5820 5820 5821 5822 5823 5824 5824 5824 5824 5824 5823 5822 5822 5821 5820 5818 5816 5815 5814 5812 5810 5808 5806 5805 5803 5800 5798 5796 5793 5791 5788 5786 5783 5780 5778 5775
5800 5801 5803 5806 5808 5809 5812 5814 5813 5814 5815 5815 5816 5817 5818 5817 5816 5816 5816 5815 5815 5814 5812 5810 5809 5808 5807 5805 5803 5801 5799 5797 5794 5792 5790 5787 5785 5783 5780 5777 5774 5772 5769 5767
5794 5795 5799 5799 5801 5803 5804 5805 5806 5807 5808 5808 5809 5809 5810 5809 5809 5809 5809 5808 5807 5806 5805 5803 5802 5801 5799 5797 5795 5792 5790 5789 5786 5784 5781 5779 5776 5774 5771 5768 5765 5762 5760 5758
5788 5790 5791 5792 5794 5796 5797 5798 5799 5800 5800 5801 5802 5802 5802 5802 5802 5802 5801 5801 5800 5799 5797 5796 5795 5794 5792 5789 5787 5785 5783 5780 5778 5775 5773 5770 5767 5765 5762 5760 5757 5754 5752 5749
5780 5782 5784 5786 5787 5788 5790 5791 5792 5793 5793 5794 5794 5795 5795 5795 5795 5795 5794 5793 5792 5791 5790 5788 5787 5786 5784 5782 5780 5778 5775 5772 5770 5768 5765 5762 5759 5757 5754 5752 5749 5746 5744 5741
5772 5775 5777 5779 5780 5781 5783 5784 5784 5785 5786 5786 5787 5787 5787 5787 5787 5787 5786 5785 5784 5784 5783 5781 5780 5778 5776 5774 5772 5770 5767 5764 5762 5759 5757 5754 5752 5749 5747 5744 5741 5738 5736 5733
5765 5767 5769 5771 5772 5774 5775 5776 5777 5778 5778 5779 5779 5779 5779 5779 5779 5779 5778 5777 5776 5776 5775 5774 5773 5771 5768 5766 5764 5762 5760 5757 5755 5752 5750 5747 5744 5742 5739 5736 5733 5730 5727 5724
5757 5759 5761 5763 5765 5766 5767 5768 5769 5770 5770 5771 5771 5771 5771 5771 5771 5771 5770 5770 5769 5768 5767 5766 5764 5762 5760 5758 5756 5754 5752 5749 5747 5744 5742 5739 5737 5734 5731 5729 5725 5722 5719 5716
5748 5750 5752 5754 5756 5757 5759 5760 5760 5761 5762 5763 5763 5763 5764 5764 5763 5763 5762 5762 5761 5760 5759 5757 5755 5753 5751 5749 5747 5745 5743 5740 5738 5736 5733 5731 5729 5726 5723 5721 5718 5715 5712 5709
5740 5742 5744 5745 5747 5749 5750 5751 5752 5753 5753 5754 5755 5755 5755 5755 5755 5755 5754 5753 5752 5751 5750 5748 5746 5744 5742 5741 5739 5737 5734 5732 5730 5727 5725 5723 5720 5718 5715 5713 5710 5707 5704 5701
5732 5734 5736 5737 5739 5740 5742 5743 5744 5745 5745 5745 5746 5747 5747 5747 5747 5746 5746 5745 5744 5743 5742 5740 5738 5736 5734 5732 5730 5728 5726 5724 5721 5719 5717 5714 5712 5709 5707 5704 5701 5699 5696 5693
5725 5727 5728 5730 5731 5732 5733 5734 5735 5736 5736 5737 5738 5738 5738 5738 5738 5738 5737 5737 5736 5734 5733 5731 5730 5728 5726 5724 5722 5720 5717 5715 5713 5711 5708 5706 5704 5701 5698 5696 5693 5690 5687 5684
5717 5719 5721 5722 5723 5724 5725 5726 5727 5727 5728 5729 5729 5729 5729 5730 5729 5729 5729 5728 5727 5725 5724 5722 5721 5719 5717 5716 5713 5711 5709 5707 5705 5702 5700 5698 5695 5693 5690 5687 5685 5682 5679 5676
5710 5712 5713 5714 5715 5716 5717 5718 5718 5719 5719 5720 5720 5720 5720 5720 5720 5720 5719 5719 5717 5716 5715 5714 5712 5710 5708 5707 5705 5703 5701 5699 5696 5694 5692 5689 5687 5685 5682 5679 5676 5674 5671 5668
5704 5705 5706 5707 5707 5708 5709 5709 5710 5710 5710 5711 5711 5711 5711 5711 5711 5711 5710 5709 5708 5707 5706 5705 5703 5702 5700 5698 5696 5694 5692 5690 5688 5685 5683 5681 5678 5676 5673 5670 5668 5665 5663 5660
5698 5699 5699 5700 5700 5701 5701 5701 5701 5702 5702 5702 5702 5702 5702 5702 5702 5701 5701 5701 5700 5699 5698 5696 5694 5693 5691 5689 5687 5686 5683 5681 5679 5676 5674 5672 5669 5667 5664 5662 5659 5656 5654 5651
5692 5693 5693 5693 5694 5694 5694 5694 5694 5694 5694 5694 5694 5694 5694 5694 5693 5693 5692 5692 5691 5690 5689 5688 5686 5684 5682 5681 5679 5677 5675 5672 5670 5668 5665 5662 5660 5658 5655 5653 5650 5647 5645 5642
5687 5687 5687 5687 5687 5687 5687 5687 5686 5686 5686 5686 5686 5686 5685 5685 5685 5684 5683 5683 5682 5681 5680 5679 5677 5676 5674 5672 5670 5668 5666 5664 5661 5659 5656 5653 5651 5649 5646 5644 5641 5639 5636 5634
5681 5681 5681 5681 5681 5681 5680 5680 5680 5679 5679 5679 5679 5678 5677 5677 5676 5675 5675 5675 5674 5673 5672 5670 5669 5667 5666 5664 5662 5660 5658 5656 5653 5650 5648 5645 5643 5640 5638 5635 5633 5630 5628 5625
5676 5675 5675 5675 5675 5674 5674 5673 5673 5673 5673 5673 5672 5671 5670 5670 5669 5668 5668 5667 5666 5665 5664 5663 5661 5659 5657 5655 5654 5652 5650 5648 5645 5642 5640 5637 5635 5632 5630 5627 5625 5622 5620 5617
5670 5670 5670 5670 5669 5669 5668 5668 5668 5667 5667 5666 5666 5665 5664 5663 5662 5662 5661 5660 5659 5658 5657 5655 5653 5651 5649 5648 5646 5644 5642 5640 5637 5635 5632 5630 5627 5625 5622 5620 5617 5615 5612 5610
5666 5665 5665 5665 5665 5664 5663 5663 5662 5662 5661 5661 5660 5659 5658 5658 5657 5656 5655 5654 5653 5651 5650 5648 5646 5644 5643 5641 5639 5637 5635 5633 5630 5628 5625 5623 5620 5617 5615 5612 5610 5608 5605 5603